User: anonymous   Login
Location: Antichan
(42.9728°N, 0.6667°E)
Time: 11:21:04
(UTC+00:00)
Language:

Cosmos 1933 Rocket - Orbit

View from above orbital plane
View from above orbital plane
View from above satellite
View from above satellite

Ground track
Ground track

The orbit data is extracted from the following two-line orbital elements,

1 18959U 88020B   20293.88140170 +.00000077 +00000-0 +63647-5 0  9990
2 18959 082.5408 210.0808 0018376 072.5421 287.7801 14.83450272761548
Epoch (UTC): 19 October 2020 21:09:13
Eccentricity: 0.0018376
inclination: 82.5408°
perigee height: 605 km
apogee height: 631 km
right ascension of ascending node: 210.0808°
argument of perigee: 72.5421°
revolutions per day: 14.83450272
mean anomaly at epoch: 287.7801°
orbit number at epoch: 76154

The dashed part of the orbit path shows where the satellite is in the earth's shadow,  

DLR